CO3D F3

operational
NORAD ID: 64900 Int'l Des: 2025-156 Owner: CNES Country: F
LEOCIRCULARRETROGRADESSO

About CO3D F3

Description loading...

Live Position

Loading 3D Globe...

Upcoming Passes

Altitude History

Altitude vs Time

uPlot chart will show altitude changes over time

Two-Line Element Set

1 64900U 25156B 25312.81294757 .00024081 00000-0 11119-2 0 9994
2 64900 97.4345 29.6671 0001185 208.1225 151.9946 15.20201414 16056
Epoch: Nov 8, 2025 • Age: 32 hours

Current Status

Altitude 513.8 km
Velocity 7.61 km/s
Sub-Earth Point -25.39°S, 97.81°E
Launch Date Jul 26, 2025
Age 0.2 years
Type earth observation

Technical Details

Classification Payload
Mass 285.00 kg
Dry Mass 285.00 kg
Total Mass 285.00 kg
Length 1.20 m
Diameter 0.50 m
Span 2.50 m
Shape Box+ 2 pan
Manufacturer ADST
Bus Type Astrobus-SE
Phase Status In Orbit
Owner/State CNES/F

Large Constellations

Loading constellations...